Yatton Keynell, United Kingdom

8:08 AM BST on April 24, 2019 (GMT +0100)
Yatton Keynell

Weather History for 03740 - August, 1998

Change the Weather History Date:

Sunday, August 2, 1998

  Actual Average Record
Temperature  
Mean Temperature 58 °F -  
Max Temperature 64 °F 68 °F - ()
Min Temperature 51 °F 53 °F - ()
Degree Days  
Heating Degree Days 8    
Growing Degree Days 8 (Base 50)    
Moisture  
Dew Point 48 °F    
Average Humidity 72    
Maximum Humidity 94    
Minimum Humidity 52    
Precipitation  
Precipitation 0.00 in 0.08 in - ()
Sea Level Pressure  
Sea Level Pressure 30.21 in    
Wind  
Wind Speed 6 mph ()    
Max Wind Speed 10 mph    
Max Gust Speed -    
Visibility 6.2 miles    
Events      
T = Trace of Precipitation, MM = Missing Value Source: Averaged Metar Reports

Daily Weather History Graph

Daily Weather History Graph

Search for Another Location

Airport or City:

Astronomy

Aug. 02, 1998 Rise Set
Actual Time 5:32 AM BST 8:54 PM BST
Civil Twilight 4:52 AM BST 9:34 PM BST
Nautical Twilight 3:57 AM BST 10:28 PM BST
Astronomical Twilight 2:42 AM BST 11:42 PM BST
Moon 3:57 PM BST (8/2) 12:51 AM BST (8/2)
Length of Visible Light 16h 42m
Length of Day
15h 22m
Waxing Gibbous, 68% of the Moon is Illuminated
Aug 2
Waxing Gibbous
Aug 8
Full
Aug 14
Last Quarter
Aug 22
New
Aug 30
First Quarter

Hourly Weather History & Observations

Time (BST) Temp. Dew Point Humidity Pressure Visibility Wind Dir Wind Speed Gust Speed Precip Events Conditions
12:50 AM 53.6 °F 51.8 °F 94% 30.18 in 6.2 mi ENE 9.2 mph - N/A   Mostly Cloudy
1:50 AM 53.6 °F 50.0 °F 88% 30.18 in 6.2 mi NNE 9.2 mph - N/A   Mostly Cloudy
2:50 AM 51.8 °F 50.0 °F 94% 30.18 in 6.2 mi NE 8.1 mph - N/A   Mostly Cloudy
3:50 AM 51.8 °F 50.0 °F 94% 30.18 in 6.2 mi NNE 8.1 mph - N/A   Overcast
4:50 AM 51.8 °F 50.0 °F 94% 30.18 in - NE 9.2 mph - N/A   Clear
5:50 AM 51.8 °F 50.0 °F 94% 30.21 in - NNE 6.9 mph - N/A   Clear
7:50 AM 53.6 °F 50.0 °F 88% 30.21 in 6.2 mi NE 10.4 mph - N/A   Partly Cloudy
8:50 AM 55.4 °F 48.2 °F 77% 30.24 in 6.2 mi NNE 8.1 mph - N/A   Partly Cloudy
9:50 AM 57.2 °F 48.2 °F 72% 30.24 in 6.2 mi NE 9.2 mph - N/A   Partly Cloudy
10:50 AM 59.0 °F 46.4 °F 63% 30.24 in 6.2 mi NNE 6.9 mph - N/A   Partly Cloudy
1:50 PM 62.6 °F 46.4 °F 55% 30.24 in 6.2 mi NW 4.6 mph - N/A   Mostly Cloudy
2:50 PM 62.6 °F 48.2 °F 59% 30.24 in 6.2 mi NNW 2.3 mph - N/A   Mostly Cloudy
3:50 PM 62.6 °F 46.4 °F 55% 30.21 in 6.2 mi North 5.8 mph - N/A   Mostly Cloudy
4:50 PM 64.4 °F 48.2 °F 56% 30.21 in 6.2 mi SSW 3.5 mph - N/A   Partly Cloudy
5:50 PM 64.4 °F 46.4 °F 52% 30.21 in 6.2 mi Calm Calm - N/A   Partly Cloudy
6:50 PM 64.4 °F 46.4 °F 52% 30.21 in 6.2 mi Calm Calm - N/A   Partly Cloudy
7:50 PM 62.6 °F 46.4 °F 55% 30.21 in 6.2 mi Calm Calm - N/A   Scattered Clouds
8:50 PM 60.8 °F 46.4 °F 59% 30.21 in 6.2 mi South 2.3 mph - N/A   Partly Cloudy
9:50 PM 59.0 °F 46.4 °F 63% 30.21 in 6.2 mi South 2.3 mph - N/A   Partly Cloudy
10:50 PM 57.2 °F 48.2 °F 72% 30.21 in 6.2 mi SSW 3.5 mph - N/A   Mostly Cloudy
11:50 PM 55.4 °F 48.2 °F 77% 30.21 in 6.2 mi South 4.6 mph - N/A   Scattered Clouds